Regional Weather Roundup
Issued by NWS Sioux Falls, SD

Home | Current Version | Previous Version | Graphics & Text | Print | Product List | Glossary On
Versions: 1 2 3 4 5 6 7 8 9 10 11 12 13 14 15 16 17 18 19 20 21 22 23 24 25 26 27 28 29 30 31 32 33 34 35 36 37 38 39 40 41 42 43 44 45 46 47 48 49 50
000
ASUS43 KFSD 210402
RWRFSD

WEATHER ROUNDUP FOR SE SOUTH DAKOTA/SW MINNESOTA/NW IOWA
NATIONAL WEATHER SERVICE SIOUX FALLS SD
1100 PM CDT SAT SEP 20 2014

NOTE: "FAIR" INDICATES FEW OR NO CLOUDS BELOW 12,000 FEET WITH NO
SIGNIFICANT WEATHER AND OR OBSTRUCTIONS TO VISIBILITY.


SDZ038>040-050-052>070-210500-
SOUTHEAST SOUTH DAKOTA

CITY           SKY/WX    TMP DP  RH WIND       PRES   REMARKS
CHAMBERLAIN    CLEAR     55  41  59 W7        30.12R
HURON          CLEAR     56  40  55 NW10      30.06R
MADISON        FAIR      54  46  76 W8        30.04R
MITCHELL       CLEAR     55  43  63 NW9       30.07R
SIOUX FALLS    CLEAR     58  47  66 W6        30.04R
WINNER         FAIR      56  39  53 NW9       30.15R
YANKTON        CLEAR     57  46  67 W6        30.07R
$$

MNZ071-072-080-081-089-090-097-098-210500-
SOUTHWEST MINNESOTA

CITY           SKY/WX    TMP DP  RH WIND       PRES   REMARKS
FAIRMONT       CLEAR     57  50  77 W10       29.95R
JACKSON        CLEAR     59  50  72 W12       29.98R
LUVERNE        CLEAR     55  45  67 W5        30.02S
MARSHALL       CLEAR     59  45  58 W16       29.95S
MONTEVIDEO     CLEAR     59  50  72 NW10      29.94R
PIPESTONE      CLEAR     57  45  62 NW8       30.02R
REDWOOD FALLS  CLEAR     58  50  75 W17       29.92S
TRACY          CLEAR     58  49  71 W5        29.97S
WINDOM         CLEAR     57  52  82 W8        29.97S
WORTHINGTON    CLEAR     55  46  71 W8        30.01R
$$

IAZ001>003-012>014-020>022-031-032-NEZ013-014-SDZ071-210500-
NORTHWEST IOWA

CITY           SKY/WX    TMP DP  RH WIND       PRES   REMARKS
CHEROKEE       CLEAR     57  55  92 CALM      30.02S
DENISON        CLEAR     63  54  72 CALM      30.02R
ESTHERVILLE    CLEAR     55  53  93 W8        29.98R
LE MARS          N/A     57  52  82 NW5       30.04R
ORANGE CITY    CLEAR     55  46  71 NW3       30.04R
SHELDON        CLEAR     55  50  82 W6        30.01R
SIOUX CITY     CLEAR     64  50  60 NW8       30.05R
SPENCER        CLEAR     53  51  93 SW6       30.00R
$$

ABBREVIATIONS USED IN REMARKS
   TC - TEMPERATURE IN CELSIUS
  WCI - WIND CHILL INDEX
   HX - HEAT INDEX
  VSB - VISIBILITY




USA.gov is the U.S. government's official web portal to all federal, state and local government web resources and services.